Greenville, MS

11:12 AM CDT on July 22, 2017 (GMT -0500)
Mid Delta Regional

Weather History for KGLH - May, 2013

Change the Weather History Date:

Wednesday, May 1, 2013

  Actual Average Record
Temperature  
Mean Temperature 68 °F 68 °F  
Max Temperature 71 °F 79 °F 95 °F (1987)
Min Temperature 65 °F 58 °F 41 °F (2014)
Degree Days  
Heating Degree Days 0 1  
Month to date heating degree days 0 1  
Since 1 July heating degree days 2643 2762  
Cooling Degree Days 3 4  
Month to date cooling degree days 3 4  
Year to date cooling degree days 82 90  
Growing Degree Days 18 (Base 50)    
Moisture  
Dew Point 63 °F    
Average Humidity 86    
Maximum Humidity 93    
Minimum Humidity 78    
Precipitation  
Precipitation 0.26 in 0.17 in 1.75 in (1957)
Month to date precipitation 0.26 0.17  
Year to date precipitation 20.92 19.52  
Sea Level Pressure  
Sea Level Pressure 29.98 in    
Wind  
Wind Speed 9 mph (East)    
Max Wind Speed 20 mph    
Max Gust Speed 29 mph    
Visibility 9 miles    
Events Rain    
T = Trace of Precipitation, MM = Missing Value Source: NWS Daily Summary

Daily Weather History Graph

Daily Weather History Graph

Search for Another Location

Airport or City:

Trip Planner

Search our weather history database for the weather conditions in past years. The results will help you decide how hot, cold, wet, or windy it might be!

Date:

Astronomy

May. 01, 2013 Rise Set
Actual Time 6:15 AM CDT 7:47 PM CDT
Civil Twilight 5:48 AM CDT 8:13 PM CDT
Nautical Twilight 5:17 AM CDT 8:45 PM CDT
Astronomical Twilight 4:43 AM CDT 9:18 PM CDT
Moon 12:56 AM CDT (5/1) 11:53 AM CDT (5/1)
Length of Visible Light 14h 24m
Length of Day
13h 31m
Waning Gibbous, 59% of the Moon is Illuminated
May 1
Waning Gibbous
May 2
Last Quarter
May 9
New
May 17
First Quarter
May 24
Full

Hourly Weather History & Observations

Time (CDT) Temp. Dew Point Humidity Pressure Visibility Wind Dir Wind Speed Gust Speed Precip Events Conditions
12:53 AM 69.1 °F 62.1 °F 78% 29.94 in 10.0 mi SSE 5.8 mph - N/A   Partly Cloudy
1:53 AM 68.0 °F 63.0 °F 84% 29.93 in 10.0 mi SSE 4.6 mph - N/A   Partly Cloudy
2:53 AM 66.9 °F 63.0 °F 87% 29.92 in 10.0 mi ESE 5.8 mph - N/A   Clear
3:53 AM 66.0 °F 63.0 °F 90% 29.92 in 10.0 mi SE 4.6 mph - N/A   Partly Cloudy
4:53 AM 66.0 °F 64.0 °F 93% 29.92 in 10.0 mi ESE 4.6 mph - 0.00 in   Mostly Cloudy
5:53 AM 66.0 °F 64.0 °F 93% 29.92 in 10.0 mi ENE 4.6 mph - 0.00 in Rain Light Rain
6:53 AM 66.0 °F 64.0 °F 93% 29.95 in 10.0 mi ENE 5.8 mph - 0.00 in   Overcast
7:53 AM 66.0 °F 64.0 °F 93% 29.97 in 6.0 mi East 8.1 mph - 0.00 in Rain Light Rain
8:53 AM 66.9 °F 64.0 °F 90% 29.98 in 7.0 mi East 10.4 mph - 0.00 in Rain Light Rain
9:24 AM 66.2 °F 64.4 °F 94% 29.96 in 6.0 mi East 11.5 mph 17.3 mph 0.00 in Rain Light Rain
9:53 AM 66.9 °F 64.0 °F 90% 29.98 in 10.0 mi East 15.0 mph 24.2 mph 0.01 in Rain Light Rain
10:53 AM 68.0 °F 64.9 °F 90% 30.00 in 6.0 mi ESE 13.8 mph - 0.06 in Rain Light Rain
11:53 AM 66.9 °F 64.9 °F 93% 30.01 in 6.0 mi East 11.5 mph 19.6 mph 0.08 in Rain Light Rain
12:53 PM 66.0 °F 64.0 °F 93% 29.99 in 5.0 mi East 12.7 mph 19.6 mph 0.05 in Rain Rain
1:47 PM 66.2 °F 64.4 °F 94% 29.98 in 10.0 mi East 8.1 mph 17.3 mph 0.01 in Rain Light Rain
1:53 PM 66.9 °F 64.9 °F 93% 30.00 in 10.0 mi East 9.2 mph 19.6 mph 0.01 in Rain Light Rain
2:00 PM 66.2 °F 64.4 °F 94% 29.98 in 6.0 mi East 10.4 mph 19.6 mph 0.00 in Rain Light Rain
2:15 PM 66.2 °F 64.4 °F 94% 29.98 in 9.0 mi ESE 12.7 mph 19.6 mph 0.00 in Rain Light Rain
2:53 PM 66.0 °F 64.0 °F 93% 29.99 in 6.0 mi East 12.7 mph 18.4 mph 0.04 in Rain Light Rain
3:18 PM 66.2 °F 64.4 °F 94% 29.97 in 8.0 mi Variable 5.8 mph 16.1 mph 0.01 in Rain Light Rain
3:53 PM 69.1 °F 64.9 °F 87% 29.98 in 10.0 mi East 10.4 mph 18.4 mph 0.01 in   Overcast
4:22 PM 71.6 °F 66.2 °F 83% 29.95 in 10.0 mi East 12.7 mph - N/A   Mostly Cloudy
4:53 PM 70.0 °F 64.9 °F 84% 29.98 in 10.0 mi ESE 13.8 mph 20.7 mph N/A   Overcast
5:53 PM 68.0 °F 63.0 °F 84% 29.99 in 10.0 mi East 13.8 mph 23.0 mph N/A   Mostly Cloudy
6:53 PM 66.9 °F 62.1 °F 84% 30.00 in 10.0 mi ESE 11.5 mph 19.6 mph N/A   Overcast
7:20 PM 66.2 °F 60.8 °F 83% 29.99 in 10.0 mi East 13.8 mph 19.6 mph N/A   Mostly Cloudy
7:53 PM 66.0 °F 61.0 °F 84% 30.01 in 10.0 mi East 11.5 mph - N/A   Overcast
8:03 PM 66.2 °F 60.8 °F 83% 29.99 in 10.0 mi East 10.4 mph - N/A   Overcast
8:53 PM 64.9 °F 61.0 °F 87% 30.01 in 10.0 mi East 8.1 mph - N/A   Overcast
9:53 PM 64.9 °F 61.0 °F 87% 30.02 in 10.0 mi East 8.1 mph - N/A   Overcast
10:53 PM 66.0 °F 61.0 °F 84% 30.02 in 10.0 mi ENE 6.9 mph - N/A   Overcast
11:53 PM 66.9 °F 62.1 °F 84% 30.01 in 10.0 mi East 8.1 mph - N/A   Overcast